FIN19 EFHK-KDFW

Flight info

Callsign FIN19
Flight time N/A
Altitude 38000
Route NEPEK Y375 UXADA DCT BAKLA DCT OLGUV DCT LEPTI DCT 64N000E/M084F380 64N010W 6330N02000W 63N030W 62N040W 60N050W/M084F400 DCT TOXIT/N0483F400 DCT LAKES DCT 5625N07000W 52N080W DCT KP90M DCT KG72K DCT KK57I DCT SGF DCT RZC DCT RRNET SEEVR4
Aircraft A359/H-SDE2E3GHIJ3J4J5LM1ORWXY/LB1D1

Departure

Time 2026-04-24 06:19
Airport Helsinki Vantaa Airport (EFHK)

Arrival

Time N/A
Airport Dallas Fort Worth International Airport (KDFW)
Time Latitude Longitude Altitude Speed Heading
2026-04-24 06:02 60.31468 24.95605 167 ft 0 kts 138°
2026-04-24 06:08 60.31469 24.95605 167 ft 1 kts 138°
2026-04-24 06:08 60.31481 24.95583 167 ft 2 kts 140°
2026-04-24 06:08 60.31494 24.95562 167 ft 2 kts 142°
2026-04-24 06:08 60.31507 24.95543 167 ft 2 kts 150°
2026-04-24 06:09 60.31522 24.95530 167 ft 2 kts 179°
2026-04-24 06:09 60.31535 24.95539 167 ft 1 kts 226°
2026-04-24 06:09 60.31536 24.95542 167 ft 0 kts 227°
2026-04-24 06:11 60.31526 24.95519 167 ft 8 kts 227°
2026-04-24 06:12 60.31466 24.95381 167 ft 15 kts 229°
2026-04-24 06:12 60.31477 24.95220 167 ft 13 kts 311°
2026-04-24 06:12 60.31520 24.95081 168 ft 11 kts 266°
2026-04-24 06:12 60.31474 24.94958 167 ft 12 kts 227°
2026-04-24 06:13 60.31403 24.94805 167 ft 18 kts 227°
2026-04-24 06:13 60.31318 24.94620 167 ft 18 kts 227°
2026-04-24 06:13 60.31262 24.94494 168 ft 18 kts 228°
2026-04-24 06:13 60.31175 24.94299 168 ft 19 kts 228°
2026-04-24 06:14 60.31085 24.94098 167 ft 18 kts 228°
2026-04-24 06:14 60.31000 24.93908 167 ft 19 kts 227°
2026-04-24 06:14 60.30911 24.93711 167 ft 19 kts 227°
2026-04-24 06:14 60.30823 24.93514 168 ft 13 kts 231°
2026-04-24 06:15 60.30851 24.93388 168 ft 12 kts 333°
2026-04-24 06:15 60.30928 24.93328 169 ft 11 kts 339°
2026-04-24 06:15 60.30995 24.93341 169 ft 10 kts 39°
2026-04-24 06:15 60.31016 24.93386 168 ft 0 kts 48°
2026-04-24 06:18 60.31100 24.93570 167 ft 47 kts 47°
2026-04-24 06:18 60.31459 24.94362 168 ft 104 kts 47°
2026-04-24 06:19 60.32065 24.95698 168 ft 152 kts 47°
2026-04-24 06:19 60.32830 24.97423 485 ft 167 kts 45°
2026-04-24 06:19 60.33580 24.99152 1149 ft 162 kts 45°
2026-04-24 06:19 60.34315 25.00865 1851 ft 161 kts 44°
2026-04-24 06:20 60.35043 25.02564 2527 ft 159 kts 44°
2026-04-24 06:20 60.35768 25.04210 3168 ft 155 kts 42°
2026-04-24 06:20 60.36521 25.05726 3709 ft 154 kts 38°
2026-04-24 06:20 60.37320 25.07352 3996 ft 173 kts 41°
2026-04-24 06:21 60.38189 25.09210 4249 ft 191 kts 42°
2026-04-24 06:21 60.39156 25.11225 4482 ft 207 kts 37°
2026-04-24 06:21 60.40442 25.12661 4714 ft 220 kts 11°
2026-04-24 06:21 60.42014 25.12987 5062 ft 233 kts
2026-04-24 06:22 60.43658 25.13017 5656 ft 238 kts 360°
2026-04-24 06:22 60.45322 25.13038 6352 ft 240 kts
2026-04-24 06:22 60.46995 25.13079 7007 ft 241 kts 360°
2026-04-24 06:22 60.48657 25.13046 7644 ft 244 kts 355°
2026-04-24 06:23 60.50301 25.12220 8289 ft 246 kts 336°
2026-04-24 06:23 60.51692 25.10169 8953 ft 251 kts 316°
2026-04-24 06:23 60.52800 25.07402 9693 ft 254 kts 311°
2026-04-24 06:23 60.53861 25.04485 10163 ft 263 kts 311°
2026-04-24 06:24 60.54978 25.01419 10442 ft 277 kts 311°
2026-04-24 06:24 60.56155 24.98205 10692 ft 291 kts 311°
2026-04-24 06:24 60.57393 24.94832 10958 ft 304 kts 311°
2026-04-24 06:24 60.58679 24.91331 11308 ft 313 kts 311°
2026-04-24 06:25 60.59989 24.87758 11835 ft 316 kts 311°
2026-04-24 06:25 60.61307 24.84158 12401 ft 318 kts 311°
2026-04-24 06:25 60.62630 24.80539 12991 ft 319 kts 311°
2026-04-24 06:25 60.63959 24.76906 13543 ft 321 kts 311°
2026-04-24 06:26 60.65292 24.73254 14037 ft 322 kts 311°
2026-04-24 06:26 60.66631 24.69584 14511 ft 323 kts 312°
2026-04-24 06:26 60.67975 24.65895 14993 ft 325 kts 312°
2026-04-24 06:26 60.69324 24.62185 15480 ft 326 kts 312°
2026-04-24 06:27 60.70676 24.58459 15964 ft 327 kts 312°
2026-04-24 06:27 60.72029 24.54719 16390 ft 328 kts 312°
2026-04-24 06:27 60.73279 24.50770 16874 ft 334 kts 306°
2026-04-24 06:27 60.74209 24.46346 17338 ft 345 kts 296°
2026-04-24 06:28 60.74772 24.41516 17781 ft 353 kts 290°
2026-04-24 06:28 60.75170 24.36519 18178 ft 358 kts 287°
2026-04-24 06:28 60.75487 24.31439 18545 ft 361 kts 286°
2026-04-24 06:28 60.75773 24.26319 18897 ft 364 kts 286°
2026-04-24 06:29 60.76056 24.21172 19256 ft 365 kts 286°
2026-04-24 06:29 60.76348 24.16006 19619 ft 366 kts 286°
2026-04-24 06:29 60.76651 24.10821 19984 ft 368 kts 287°
2026-04-24 06:29 60.76962 24.05628 20326 ft 369 kts 287°
2026-04-24 06:30 60.77278 24.00405 20673 ft 371 kts 287°
2026-04-24 06:30 60.77597 23.95166 21039 ft 372 kts 287°
2026-04-24 06:30 60.77916 23.89896 21342 ft 374 kts 287°
2026-04-24 06:30 60.78233 23.84615 21696 ft 375 kts 286°
2026-04-24 06:31 60.78550 23.79300 22043 ft 377 kts 286°
2026-04-24 06:31 60.78865 23.73968 22369 ft 378 kts 286°
2026-04-24 06:31 60.79180 23.68618 22698 ft 380 kts 286°
2026-04-24 06:31 60.79493 23.63232 23034 ft 382 kts 286°
2026-04-24 06:32 60.79802 23.57896 23378 ft 383 kts 286°
2026-04-24 06:32 60.80115 23.52461 23641 ft 385 kts 286°
2026-04-24 06:32 60.80427 23.47003 23898 ft 387 kts 285°
2026-04-24 06:32 60.80739 23.41508 24151 ft 389 kts 285°
2026-04-24 06:33 60.81048 23.36000 24419 ft 390 kts 285°
2026-04-24 06:33 60.81356 23.30461 24704 ft 392 kts 285°
2026-04-24 06:33 60.81664 23.24899 24962 ft 394 kts 285°
2026-04-24 06:33 60.81970 23.19311 25185 ft 395 kts 285°
2026-04-24 06:34 60.82276 23.13698 25362 ft 398 kts 284°
2026-04-24 06:34 60.82583 23.08037 25580 ft 401 kts 284°
2026-04-24 06:34 60.82888 23.02341 25859 ft 403 kts 284°
2026-04-24 06:34 60.83191 22.96626 26133 ft 404 kts 284°
2026-04-24 06:35 60.83494 22.90887 26401 ft 406 kts 284°
2026-04-24 06:35 60.83795 22.85124 26665 ft 408 kts 284°
2026-04-24 06:35 60.84096 22.79335 26924 ft 409 kts 283°
2026-04-24 06:35 60.84394 22.73524 27207 ft 411 kts 283°
2026-04-24 06:36 60.84694 22.67679 27481 ft 413 kts 283°
2026-04-24 06:36 60.85159 22.61902 27742 ft 408 kts 290°
2026-04-24 06:36 60.85934 22.56329 28012 ft 406 kts 294°
2026-04-24 06:36 60.86820 22.50817 28292 ft 407 kts 295°
2026-04-24 06:37 60.87755 22.45313 28428 ft 411 kts 295°
2026-04-24 06:37 60.88710 22.39829 28647 ft 414 kts 295°
2026-04-24 06:37 60.89698 22.34189 28948 ft 415 kts 295°
2026-04-24 06:37 60.90674 22.28599 29226 ft 417 kts 295°
2026-04-24 06:38 60.91635 22.23049 29508 ft 419 kts 295°
2026-04-24 06:38 60.92609 22.17390 29778 ft 421 kts 295°
2026-04-24 06:38 60.93582 22.11695 30043 ft 423 kts 294°
2026-04-24 06:38 60.94556 22.05966 30283 ft 425 kts 294°
2026-04-24 06:39 60.95529 22.00221 30536 ft 426 kts 294°
2026-04-24 06:39 60.96505 21.94440 30792 ft 427 kts 294°
2026-04-24 06:39 60.97481 21.88638 31036 ft 429 kts 294°
2026-04-24 06:39 60.98459 21.82809 31212 ft 431 kts 293°
2026-04-24 06:40 60.99441 21.76945 31377 ft 434 kts 293°
2026-04-24 06:40 61.00425 21.71042 31604 ft 436 kts 293°
2026-04-24 06:40 61.01408 21.65130 31855 ft 437 kts 293°
2026-04-24 06:40 61.02393 21.59182 32078 ft 438 kts 293°
2026-04-24 06:41 61.03376 21.53231 32294 ft 439 kts 293°
2026-04-24 06:41 61.04361 21.47247 32513 ft 440 kts 293°
2026-04-24 06:41 61.05332 21.41327 32699 ft 442 kts 292°
2026-04-24 06:41 61.06314 21.35321 32958 ft 442 kts 292°
2026-04-24 06:42 61.07291 21.29317 33271 ft 440 kts 292°
2026-04-24 06:42 61.08276 21.23246 33585 ft 439 kts 292°
2026-04-24 06:42 61.09233 21.17337 33786 ft 440 kts 292°
2026-04-24 06:42 61.10204 21.11321 33925 ft 442 kts 292°
2026-04-24 06:43 61.11174 21.05292 34150 ft 441 kts 291°
2026-04-24 06:43 61.12139 20.99274 34393 ft 441 kts 291°
2026-04-24 06:43 61.13099 20.93261 34622 ft 440 kts 292°
2026-04-24 06:43 61.14056 20.87253 34828 ft 440 kts 292°
2026-04-24 06:44 61.15010 20.81234 35057 ft 440 kts 292°
2026-04-24 06:44 61.15964 20.75205 35242 ft 439 kts 292°
2026-04-24 06:44 61.16913 20.69181 35472 ft 439 kts 292°
2026-04-24 06:44 61.17857 20.63168 35681 ft 439 kts 291°
2026-04-24 06:45 61.18800 20.57141 35880 ft 439 kts 291°
2026-04-24 06:45 61.19738 20.51127 36099 ft 438 kts 291°
2026-04-24 06:45 61.20673 20.45109 36284 ft 438 kts 291°
2026-04-24 06:45 61.21607 20.39084 36486 ft 438 kts 291°
2026-04-24 06:46 61.22535 20.33071 36655 ft 438 kts 291°
2026-04-24 06:46 61.23464 20.27032 36822 ft 438 kts 291°
2026-04-24 06:46 61.24389 20.20996 36987 ft 438 kts 291°
2026-04-24 06:46 61.25310 20.14969 37163 ft 438 kts 291°
2026-04-24 06:47 61.26216 20.09015 37327 ft 438 kts 291°
2026-04-24 06:47 61.27131 20.02984 37461 ft 438 kts 291°
2026-04-24 06:47 61.28043 19.96950 37632 ft 437 kts 291°
2026-04-24 06:47 61.28953 19.90905 37745 ft 437 kts 291°
2026-04-24 06:48 61.29865 19.84837 37721 ft 441 kts 291°
2026-04-24 06:48 61.31695 19.72589 37901 ft 443 kts 291°
2026-04-24 06:49 61.33521 19.60271 37949 ft 447 kts 291°
2026-04-24 06:49 61.35347 19.47862 37947 ft 448 kts 291°
2026-04-24 06:50 61.37198 19.35578 37955 ft 446 kts 293°
2026-04-24 06:50 61.39379 19.23491 37942 ft 445 kts 294°
2026-04-24 06:51 61.41630 19.11383 37967 ft 449 kts 294°
2026-04-24 06:51 61.43834 18.99172 37966 ft 449 kts 293°
2026-04-24 06:52 61.45999 18.86891 37963 ft 450 kts 293°
2026-04-24 06:52 61.48143 18.74593 37963 ft 450 kts 293°
2026-04-24 06:53 61.50268 18.62337 37966 ft 450 kts 293°
2026-04-24 06:53 61.52398 18.49987 37970 ft 453 kts 292°
2026-04-24 06:54 61.54530 18.37540 37971 ft 454 kts 292°
2026-04-24 06:54 61.56654 18.25061 37979 ft 454 kts 292°
2026-04-24 06:55 61.58750 18.12653 37982 ft 454 kts 292°
2026-04-24 06:55 61.60851 18.00138 37987 ft 454 kts 292°
2026-04-24 06:56 61.62942 17.87602 37983 ft 455 kts 291°
2026-04-24 06:56 61.65029 17.75000 37989 ft 457 kts 291°
2026-04-24 06:57 61.67100 17.62409 37990 ft 457 kts 291°
2026-04-24 06:57 61.69167 17.49753 37994 ft 457 kts 291°
2026-04-24 06:58 61.71225 17.37059 37996 ft 457 kts 291°
2026-04-24 06:58 61.73273 17.24345 37994 ft 458 kts 290°
2026-04-24 06:59 61.75316 17.11573 38002 ft 460 kts 290°
2026-04-24 06:59 61.77350 16.98757 38009 ft 460 kts 290°